Location: Sebastopol
(38.4021°N, 122.8239°W)
Time: 15:08:51
(UTC+00:00)

Meteor 2-5 Rocket - Pass Details

Date: 29 October 2020
Orbit: 833 x 911 km, 81.2° (Epoch: 01 December)

Event Time Altitude Azimuth Distance (km) Brightness Sun altitude
Rises 12:43:48 0° 196° (SSW) 3,413 6.7 -22.3°
Reaches altitude 10° 12:46:13 10° 200° (SSW) 2,492 6.0 -21.9°
Maximum altitude 12:51:49 64° 281° (W) 969 3.7 -20.8°
Drops below altitude 10° 12:57:36 10° 3° (N) 2,561 6.2 -19.6°
Sets 13:00:07 0° 6° (N) 3,515 7.0 -19.1°
